Regional Weather Roundup
Issued by NWS

Home | Current Version | Previous Version | Text Only | Print | Product List | Glossary On
Versions: 1 2 3 4 5 6 7 8 9 10 11 12 13 14 15 16 17 18 19 20 21 22 23 24 25 26 27
000
ASUS45 KBOU 260107
RWRCO

WEATHER ROUNDUP FOR COLORADO
NATIONAL WEATHER SERVICE DENVER/BOULDER CO
700 PM MDT WED MAY 25 2016

NOTE: "FAIR" INDICATES FEW OR NO CLOUDS BELOW 12000 FEET WITH NO
SIGNIFICANT WEATHER AND/OR OBSTRUCTIONS TO VISIBILITY.

COZ001>005-013-030-031-260200-
...NORTHWEST COLORADO...

CITY           SKY/WX    TMP DP  RH WIND       PRES   REMARKS
CRAIG          FAIR      64  27  24 W12       30.00F
HAYDEN         FAIR      61  25  25 NW12      30.02S
MEEKER         FAIR      66  14  13 SW16      30.01S
MOUNT WERNER   NOT AVBL
STEAMBOAT SPGS FAIR      62  22  22 W10       30.03R
WALDEN         FAIR      55  18  22 SW14      30.11R
$$

COZ006>008-011-260200-
...WEST CENTRAL VALLEYS...

CITY           SKY/WX    TMP DP  RH WIND       PRES   REMARKS
GRAND JUNCTION FAIR      72  15  11 W9        29.93F
MONTROSE       FAIR      70   9   9 SW10      29.99F
EAGLE          SUNNY     66  18  15 SW8       30.03F
RIFLE          FAIR      70  21  15 W13       29.96F
DELTA          FAIR      75   5   6 SW14G23   29.96S
NUCLA          FAIR      70   9   9 SW10      30.03F
$$

COZ017>023-064>068-260200-
...SOUTHWEST COLORADO...

CITY           SKY/WX    TMP DP  RH WIND       PRES   REMARKS
DURANGO        FAIR      66  12  12 W6        30.03F
CORTEZ         FAIR      69  19  15 SW8       29.98F
PAGOSA SPRINGS FAIR      63  -1   7 SW6       30.11F
TELLURIDE      PTSUNNY   56   4  12 W8        30.18S
WOLF CREEK PAS FAIR      36   7  30 SW23G31   30.34F
$$

COZ009-010-012-014-032>034-037-058>063-260200-
...CENTRAL COLORADO...

CITY           SKY/WX    TMP DP  RH WIND       PRES   REMARKS
ASPEN          FAIR      60  10  14 W9        30.08F
BUENA VISTA    FAIR      63   3   9 W9G23     30.07S
COPPER MTN     NOT AVBL
BERTHOUD PASS  FAIR      34  27  75 W16G23    30.31S WCI  23
COTTONWOOD PAS FAIR      55 -13   6 W12G22    30.19R
GUNNISON       FAIR      61   9  12 NW9G18    30.11S
KREMMLING      FAIR      61   9  12 SW16      30.07S
LEADVILLE      FAIR      50  -7   9 W8        30.18F
MONARCH PASS   FAIR      41  10  28 W22G28    30.40S
SALIDA         FAIR      67   7   9 W17G23    30.12S
SUNLIGHT       FAIR      43  19  39 CALM      30.26S
WILKERSON PASS FAIR      50   1  13 SW6       30.28S
$$

COZ069>075-260200-
...SAN LUIS VALLEY/SANGRE DE CRISTO MOUNTAINS...

CITY           SKY/WX    TMP DP  RH WIND       PRES   REMARKS
ALAMOSA        FAIR      65   5   9 W9        30.07F
LA VETA PASS   FAIR      54   7  15 SW7       30.22F
SAGUACHE       FAIR      63   9  12 W15       30.08S
$$

COZ035-036-038>040-260200-
...NORTHERN COLORADO FRONT RANGE...

CITY           SKY/WX    TMP DP  RH WIND       PRES   REMARKS
DENVER INTL AP PTSUNNY   65  44  46 E13       29.92F
DMNS CITY PARK   N/A     71  35  27 E7        29.91S
AURORA         PTSUNNY   66  39  36 E10       29.93F
FRONT RANGE AP PTSUNNY   66  41  39 E10       29.93F
ERIE MUNI ARPT FAIR      66  46  48 N6        29.92S
BOULDER MUN AP FAIR      68  41  37 CALM      29.93S
CENTENNIAL     PTSUNNY   67  35  30 NE8       29.93F
BROOMFIELD     NOT AVBL
FORT COLLINS   FAIR      70  45  40 S6        29.92S
LONGMONT       FAIR      72  41  33 CALM      29.94S
$$

COZ041-046-047-076>085-087-088-260200-
...PIKES PEAK/PALMER DIVIDE AND SOUTHERN FOOTHILLS...

CITY           SKY/WX    TMP DP  RH WIND       PRES   REMARKS
COLO. SPRINGS  PTSUNNY   72  18  13 S14       29.96S
A. F. ACADEMY  FAIR      68   7   9 SW9       29.96S
SCHRIEVER AFB  NOT AVBL
ELLICOTT       FAIR     N/A N/A N/A S14       29.95S
FALCON         FAIR      65  19  17 S7        30.01R
FORT CARSON    FAIR      73  11   9 SW12G22   29.92R
LIMON          FAIR      67  39  35 VRB3      29.94R
MONUMENT HILL  FAIR      63  34  34 NW3       30.02R
TRINIDAD       FAIR      78  19  11 NE3       29.93F
$$

COZ042>045-048>051-090-091-260200-
...NORTHEAST COLORADO...

CITY           SKY/WX    TMP DP  RH WIND       PRES   REMARKS
GREELEY ARPT   FAIR      72  39  30 SE9       29.91S
AKRON          FAIR      60  45  57 NE13      29.95F
BURLINGTON     FAIR      77  37  23 SE8       29.89F
WRAY           NOT AVBL
STERLING       FAIR      64  43  45 E9        29.91R
HOLYOKE        FAIR      61  48  63 E9        29.97R
FORT MORGAN    FAIR      65  39  37 E14       29.94R
$$

COZ086-089-092>099-260200-
...SOUTHEAST COLORADO...

CITY           SKY/WX    TMP DP  RH WIND       PRES   REMARKS
PUEBLO         FAIR      82   8   6 SW22G29   29.84F
LA JUNTA       FAIR      80  27  14 E13       29.84F
LAMAR          FAIR      82  30  15 E13       29.82F
SPRINGFIELD      N/A     78  24  13 S15       29.88F
$$




USA.gov is the U.S. government's official web portal to all federal, state and local government web resources and services.